| time (UTC) | temp F | wind direction | speed MPH | gust MPH | rain 1hr in | rain 24hr in | rain mn in | humidity % | barometer mb |
| 20260505034611 | 52 | 237 | 0.0 | 0.0 | 0.00 | 0.00 | 0.00 | 89 | 1011.4 |
| 20260505034108 | 52 | 237 | 0.0 | 0.0 | 0.00 | 0.00 | 0.00 | 89 | 1011.4 |
| 20260505033604 | 52 | 237 | 0.0 | 0.0 | 0.00 | 0.00 | 0.00 | 89 | 1011.6 |
| 20260505033058 | 52 | 237 | 0.0 | 0.0 | 0.00 | 0.00 | 0.00 | 88 | 1011.6 |
| 20260505032555 | 52 | 236 | 0.0 | 0.0 | 0.00 | 0.00 | 0.00 | 88 | 1011.5 |
| 20260505032051 | 52 | 236 | 0.0 | 0.0 | 0.00 | 0.00 | 0.00 | 88 | 1011.5 |
| 20260505031549 | 52 | 223 | 0.0 | 0.0 | 0.00 | 0.00 | 0.00 | 88 | 1011.4 |
| 20260505031045 | 53 | 219 | 0.0 | 0.0 | 0.00 | 0.00 | 0.00 | 88 | 1011.5 |
| 20260505030542 | 53 | 213 | 0.0 | 0.0 | 0.00 | 0.00 | 0.00 | 88 | 1011.5 |
| 20260505030038 | 53 | 211 | 0.0 | 0.0 | 0.00 | 0.00 | 0.00 | 88 | 1011.5 |
| 20260505025534 | 53 | 216 | 0.0 | 0.0 | 0.00 | 0.00 | 0.00 | 87 | 1011.6 |
| 20260505025033 | 53 | 198 | 0.0 | 0.0 | 0.00 | 0.00 | 0.00 | 86 | 1011.8 |
| 20260505024530 | 53 | 184 | 0.0 | 0.0 | 0.00 | 0.00 | 0.00 | 86 | 1011.5 |
| 20260505024027 | 53 | 184 | 0.0 | 0.0 | 0.00 | 0.00 | 0.00 | 85 | 1011.6 |
| 20260505023524 | 53 | 185 | 0.0 | 0.0 | 0.00 | 0.00 | 0.00 | 84 | 1011.6 |
| 20260505023022 | 53 | 185 | 0.0 | 0.0 | 0.00 | 0.00 | 0.00 | 83 | 1011.5 |
| 20260505022519 | 54 | 185 | 0.0 | 0.0 | 0.00 | 0.00 | 0.00 | 83 | 1011.7 |
| 20260505022016 | 55 | 178 | 0.0 | 0.0 | 0.00 | 0.00 | 0.00 | 79 | 1011.7 |
| 20260505021513 | 0 | 0.0 | 0.0 | 0.00 | 0.00 | 0.00 | 1011.6 | ||
| 20260505021009 | 0 | 0.0 | 0.0 | 0.00 | 0.00 | 0.00 | 1011.6 | ||
| 20260505020508 | 58 | 178 | 0.0 | 0.0 | 0.00 | 0.00 | 0.00 | 72 | 1011.6 |
| 20260505020006 | 58 | 178 | 0.0 | 0.0 | 0.00 | 0.00 | 0.00 | 72 | 1011.8 |
| 20260505015503 | 60 | 139 | 0.0 | 0.0 | 0.00 | 0.00 | 0.00 | 69 | 1011.7 |
| 20260505015000 | 60 | 139 | 0.0 | 0.0 | 0.00 | 0.00 | 0.00 | 69 | 1011.7 |
| 20260505014457 | 61 | 135 | 0.0 | 0.0 | 0.00 | 0.00 | 0.00 | 68 | 1011.7 |
| 20260505013954 | 62 | 136 | 0.0 | 0.0 | 0.00 | 0.00 | 0.00 | 65 | 1011.7 |
| 20260505013451 | 64 | 142 | 0.0 | 0.0 | 0.00 | 0.00 | 0.00 | 60 | 1011.7 |
| 20260505012948 | 64 | 131 | 0.0 | 0.0 | 0.00 | 0.00 | 0.00 | 59 | 1011.6 |
| 20260505012446 | 65 | 177 | 1.0 | 1.0 | 0.00 | 0.00 | 0.00 | 59 | 1011.7 |
| 20260505011943 | 65 | 146 | 1.0 | 2.0 | 0.00 | 0.00 | 0.00 | 58 | 1011.7 |
| 20260505011439 | 65 | 172 | 1.0 | 3.0 | 0.00 | 0.00 | 0.00 | 58 | 1011.7 |
| 20260505010936 | 65 | 101 | 2.0 | 3.0 | 0.00 | 0.00 | 0.00 | 58 | 1011.7 |
| 20260505010432 | 65 | 174 | 2.0 | 4.0 | 0.00 | 0.00 | 0.00 | 58 | 1011.7 |
| 20260505005928 | 65 | 177 | 3.0 | 4.0 | 0.00 | 0.00 | 0.00 | 58 | 1011.5 |
| 20260505005425 | 65 | 152 | 3.0 | 4.0 | 0.00 | 0.00 | 0.00 | 57 | 1011.6 |
| 20260505004922 | 66 | 143 | 3.0 | 3.0 | 0.00 | 0.00 | 0.00 | 57 | 1011.5 |
| 20260505004418 | 66 | 153 | 4.0 | 6.0 | 0.00 | 0.00 | 0.00 | 56 | 1011.5 |
| 20260505003915 | 67 | 153 | 1.0 | 6.0 | 0.00 | 0.00 | 0.00 | 55 | 1011.3 |
| 20260505003413 | 67 | 144 | 1.0 | 1.0 | 0.00 | 0.00 | 0.00 | 56 | 1011.4 |
| 20260505002909 | 67 | 172 | 2.0 | 2.0 | 0.00 | 0.00 | 0.00 | 55 | 1011.4 |
| 20260505002405 | 67 | 146 | 4.0 | 7.0 | 0.00 | 0.00 | 0.00 | 55 | 1011.2 |
| 20260505001904 | 67 | 178 | 1.0 | 6.0 | 0.00 | 0.00 | 0.00 | 56 | 1010.9 |
| 20260505001401 | 67 | 158 | 3.0 | 4.0 | 0.00 | 0.00 | 0.00 | 55 | 1011.0 |
| 20260505000858 | 67 | 142 | 2.0 | 3.0 | 0.00 | 0.00 | 0.00 | 57 | 1011.0 |
| 20260505000358 | 66 | 176 | 2.0 | 9.0 | 0.00 | 0.00 | 0.00 | 58 | 1011.2 |
| 20260504235852 | 67 | 143 | 2.0 | 3.0 | 0.00 | 0.00 | 0.00 | 57 | 1011.3 |
| 20260504235349 | 0 | 0.0 | 0.0 | 0.00 | 0.00 | 0.00 | 1011.4 | ||
| 20260504234845 | 0 | 0.0 | 0.0 | 0.00 | 0.00 | 0.00 | 1011.3 | ||
| 20260504234343 | 68 | 145 | 1.0 | 1.0 | 0.00 | 0.00 | 0.00 | 55 | 1011.3 |
| 20260504233840 | 68 | 145 | 1.0 | 1.0 | 0.00 | 0.00 | 0.00 | 55 | 1011.3 |
| 20260504233335 | 68 | 178 | 3.0 | 4.0 | 0.00 | 0.00 | 0.00 | 54 | 1011.2 |
| 20260504232833 | 68 | 173 | 3.0 | 4.0 | 0.00 | 0.00 | 0.00 | 53 | 1011.0 |
| 20260504232329 | 68 | 167 | 2.0 | 2.0 | 0.00 | 0.00 | 0.00 | 53 | 1011.0 |
| 20260504231826 | 69 | 151 | 4.0 | 8.0 | 0.00 | 0.00 | 0.00 | 53 | 1011.0 |
| 20260504231323 | 69 | 247 | 2.0 | 8.0 | 0.00 | 0.00 | 0.00 | 54 | 1011.0 |
| 20260504230819 | 70 | 148 | 0.0 | 3.0 | 0.00 | 0.00 | 0.00 | 53 | 1011.2 |
| 20260504230317 | 70 | 137 | 0.0 | 4.0 | 0.00 | 0.00 | 0.00 | 53 | 1011.0 |
| 20260504225816 | 70 | 164 | 3.0 | 6.0 | 0.00 | 0.00 | 0.00 | 52 | 1011.0 |
| 20260504225311 | 70 | 154 | 4.0 | 7.0 | 0.00 | 0.00 | 0.00 | 51 | 1011.0 |
| 20260504224809 | 69 | 157 | 3.0 | 6.0 | 0.00 | 0.00 | 0.00 | 52 | 1011.2 |
| 20260504224306 | 69 | 138 | 1.0 | 4.0 | 0.00 | 0.00 | 0.00 | 55 | 1011.3 |
| 20260504223802 | 70 | 135 | 3.0 | 6.0 | 0.00 | 0.00 | 0.00 | 50 | 1011.3 |
| 20260504223258 | 70 | 194 | 5.0 | 10.0 | 0.00 | 0.00 | 0.00 | 52 | 1011.3 |
| 20260504222755 | 69 | 133 | 2.0 | 2.0 | 0.00 | 0.00 | 0.00 | 53 | 1011.7 |
| 20260504222252 | 69 | 213 | 8.0 | 10.0 | 0.00 | 0.00 | 0.00 | 53 | 1011.5 |
| 20260504221750 | 69 | 180 | 6.0 | 9.0 | 0.00 | 0.00 | 0.00 | 53 | 1011.5 |
| 20260504221247 | 70 | 234 | 1.0 | 2.0 | 0.00 | 0.00 | 0.00 | 52 | 1011.4 |
| 20260504220743 | 70 | 184 | 6.0 | 9.0 | 0.00 | 0.00 | 0.00 | 53 | 1011.4 |
| 20260504220240 | 70 | 174 | 3.0 | 7.0 | 0.00 | 0.00 | 0.00 | 53 | 1011.2 |
| 20260504215737 | 70 | 87 | 6.0 | 16.0 | 0.00 | 0.00 | 0.00 | 50 | 1010.8 |
| 20260504215234 | 70 | 183 | 3.0 | 6.0 | 0.00 | 0.00 | 0.00 | 50 | 1010.9 |
| 20260504214730 | 71 | 147 | 5.0 | 8.0 | 0.00 | 0.00 | 0.00 | 51 | 1010.9 |
| 20260504214226 | 71 | 186 | 4.0 | 8.0 | 0.00 | 0.00 | 0.00 | 51 | 1010.9 |
| 20260504213723 | 72 | 92 | 4.0 | 9.0 | 0.00 | 0.00 | 0.00 | 50 | 1010.6 |
| 20260504213220 | 71 | 39 | 6.0 | 10.0 | 0.00 | 0.00 | 0.00 | 50 | 1010.7 |
| 20260504212717 | 71 | 122 | 4.0 | 6.0 | 0.00 | 0.00 | 0.00 | 51 | 1010.9 |
| 20260504212214 | 70 | 72 | 4.0 | 10.0 | 0.00 | 0.00 | 0.00 | 49 | 1010.9 |
| 20260504211711 | 70 | 217 | 3.0 | 3.0 | 0.00 | 0.00 | 0.00 | 50 | 1010.9 |
| 20260504211207 | 70 | 232 | 8.0 | 10.0 | 0.00 | 0.00 | 0.00 | 51 | 1010.9 |
| 20260504210704 | 70 | 158 | 4.0 | 4.0 | 0.00 | 0.00 | 0.00 | 51 | 1010.8 |
| 20260504210201 | 70 | 79 | 4.0 | 7.0 | 0.00 | 0.00 | 0.00 | 52 | 1011.2 |
| 20260504205658 | 71 | 140 | 6.0 | 9.0 | 0.00 | 0.00 | 0.00 | 50 | 1010.6 |
| 20260504205155 | 72 | 145 | 3.0 | 11.0 | 0.00 | 0.00 | 0.00 | 50 | 1010.9 |
| 20260504204654 | 72 | 254 | 7.0 | 13.0 | 0.00 | 0.00 | 0.00 | 48 | 1010.8 |
| 20260504204152 | 73 | 147 | 4.0 | 9.0 | 0.00 | 0.00 | 0.00 | 48 | 1010.8 |
| 20260504203651 | 72 | 151 | 3.0 | 4.0 | 0.00 | 0.00 | 0.00 | 49 | 1010.7 |
| 20260504203149 | 70 | 87 | 3.0 | 7.0 | 0.00 | 0.00 | 0.00 | 50 | 1010.8 |
| 20260504202648 | 69 | 159 | 4.0 | 9.0 | 0.00 | 0.00 | 0.00 | 49 | 1010.9 |
| 20260504202146 | 69 | 156 | 5.0 | 7.0 | 0.00 | 0.00 | 0.00 | 50 | 1011.0 |
| 20260504201643 | 70 | 189 | 4.0 | 8.0 | 0.00 | 0.00 | 0.00 | 51 | 1011.0 |
| 20260504201140 | 71 | 87 | 2.0 | 11.0 | 0.00 | 0.00 | 0.00 | 50 | 1010.9 |
| 20260504200637 | 71 | 85 | 6.0 | 9.0 | 0.00 | 0.00 | 0.00 | 48 | 1011.2 |
| 20260504200134 | 71 | 124 | 2.0 | 8.0 | 0.00 | 0.00 | 0.00 | 49 | 1011.2 |
| 20260504195630 | 72 | 149 | 5.0 | 10.0 | 0.00 | 0.00 | 0.00 | 52 | 1011.0 |
| 20260504195126 | 71 | 265 | 2.0 | 7.0 | 0.00 | 0.00 | 0.00 | 53 | 1011.2 |
| 20260504194623 | 71 | 166 | 4.0 | 13.0 | 0.00 | 0.00 | 0.00 | 52 | 1011.0 |
| 20260504194119 | 71 | 184 | 5.0 | 8.0 | 0.00 | 0.00 | 0.00 | 49 | 1011.3 |
| 20260504193615 | 71 | 189 | 9.0 | 14.0 | 0.00 | 0.00 | 0.00 | 49 | 1011.3 |
| 20260504193114 | 71 | 179 | 6.0 | 10.0 | 0.00 | 0.00 | 0.00 | 51 | 1011.2 |
| 20260504192612 | 70 | 192 | 4.0 | 6.0 | 0.00 | 0.00 | 0.00 | 52 | 1011.3 |
| 20260504192109 | 71 | 175 | 5.0 | 13.0 | 0.00 | 0.00 | 0.00 | 52 | 1011.4 |
| 20260504191608 | 70 | 189 | 11.0 | 13.0 | 0.00 | 0.00 | 0.00 | 52 | 1011.5 |
| 20260504191103 | 71 | 241 | 3.0 | 6.0 | 0.00 | 0.00 | 0.00 | 51 | 1011.6 |
| 20260504190600 | 71 | 159 | 4.0 | 11.0 | 0.00 | 0.00 | 0.00 | 54 | 1011.6 |
| 20260504190056 | 70 | 124 | 4.0 | 10.0 | 0.00 | 0.00 | 0.00 | 52 | 1011.6 |
| 20260504185553 | 70 | 192 | 4.0 | 7.0 | 0.00 | 0.00 | 0.00 | 51 | 1011.7 |
| 20260504185050 | 70 | 181 | 7.0 | 14.0 | 0.00 | 0.00 | 0.00 | 53 | 1011.9 |
| 20260504184545 | 71 | 235 | 5.0 | 6.0 | 0.00 | 0.00 | 0.00 | 52 | 1011.7 |
| 20260504184040 | 70 | 168 | 5.0 | 9.0 | 0.00 | 0.00 | 0.00 | 52 | 1011.9 |
| 20260504183538 | 69 | 128 | 6.0 | 9.0 | 0.00 | 0.00 | 0.00 | 52 | 1012.0 |
| 20260504183036 | 71 | 128 | 8.0 | 10.0 | 0.00 | 0.00 | 0.00 | 54 | 1012.1 |
| 20260504182532 | 70 | 343 | 2.0 | 4.0 | 0.00 | 0.00 | 0.00 | 55 | 1012.2 |
| 20260504182030 | 69 | 207 | 6.0 | 9.0 | 0.00 | 0.00 | 0.00 | 55 | 1012.3 |
| 20260504181527 | 69 | 76 | 8.0 | 14.0 | 0.00 | 0.00 | 0.00 | 54 | 1012.1 |
| 20260504181025 | 69 | 65 | 7.0 | 11.0 | 0.00 | 0.00 | 0.00 | 52 | 1012.1 |
| 20260504180524 | 69 | 152 | 5.0 | 14.0 | 0.00 | 0.00 | 0.00 | 55 | 1012.4 |
| 20260504180022 | 68 | 227 | 4.0 | 10.0 | 0.00 | 0.00 | 0.00 | 53 | 1012.3 |
| 20260504175519 | 68 | 164 | 5.0 | 15.0 | 0.00 | 0.00 | 0.00 | 56 | 1012.2 |
| 20260504175016 | 68 | 184 | 10.0 | 15.0 | 0.00 | 0.00 | 0.00 | 55 | 1012.3 |
| 20260504174514 | 68 | 146 | 10.0 | 13.0 | 0.00 | 0.00 | 0.00 | 53 | 1012.2 |
| 20260504174011 | 68 | 129 | 5.0 | 15.0 | 0.00 | 0.00 | 0.00 | 54 | 1012.3 |
| 20260504173507 | 68 | 136 | 2.0 | 6.0 | 0.00 | 0.00 | 0.00 | 54 | 1012.3 |
| 20260504173005 | 69 | 141 | 5.0 | 8.0 | 0.00 | 0.00 | 0.00 | 56 | 1012.5 |
| 20260504172501 | 68 | 132 | 9.0 | 16.0 | 0.00 | 0.00 | 0.00 | 55 | 1012.7 |
| 20260504171957 | 68 | 138 | 7.0 | 11.0 | 0.00 | 0.00 | 0.00 | 54 | 1012.7 |
| 20260504171454 | 68 | 169 | 8.0 | 15.0 | 0.00 | 0.00 | 0.00 | 53 | 1012.6 |
| 20260504170951 | 68 | 157 | 6.0 | 16.0 | 0.00 | 0.00 | 0.00 | 52 | 1012.8 |
| 20260504170447 | 68 | 199 | 7.0 | 14.0 | 0.00 | 0.00 | 0.00 | 54 | 1012.8 |
| 20260504160407 | 67 | 129 | 9.0 | 13.0 | 0.00 | 0.00 | 0.00 | 54 | 1013.7 |
| 20260504150831 | 65 | 144 | 9.0 | 13.0 | 0.00 | 0.00 | 0.00 | 50 | 1014.4 |
| 20260504150328 | 65 | 178 | 3.0 | 4.0 | 0.00 | 0.00 | 0.00 | 52 | 1014.4 |
| 20260504141258 | 62 | 138 | 5.0 | 13.0 | 0.00 | 0.00 | 0.00 | 55 | 1014.7 |
| 20260504140754 | 62 | 141 | 4.0 | 8.0 | 0.00 | 0.00 | 0.00 | 54 | 1014.6 |
| 20260504140250 | 61 | 93 | 6.0 | 9.0 | 0.00 | 0.00 | 0.00 | 53 | 1014.7 |
| 20260504130719 | 57 | 131 | 4.0 | 7.0 | 0.00 | 0.00 | 0.00 | 59 | 1014.7 |
| 20260504130214 | 56 | 106 | 5.0 | 7.0 | 0.00 | 0.00 | 0.00 | 61 | 1014.7 |
| 20260504120139 | 53 | 129 | 1.0 | 7.0 | 0.00 | 0.00 | 0.00 | 70 | 1014.9 |
| 20260504110606 | 48 | 95 | 0.0 | 1.0 | 0.00 | 0.00 | 0.00 | 72 | 1015.2 |
| 20260504100533 | 48 | 230 | 0.0 | 0.0 | 0.00 | 0.00 | 0.00 | 68 | 1015.3 |
| 20260504081926 | 0 | 0.0 | 0.0 | 0.00 | 0.00 | 0.00 | 1016.0 | ||
| 20260504081424 | 0 | 0.0 | 0.0 | 0.00 | 0.00 | 0.00 | 1016.1 | ||
| 20260504080919 | 0 | 0.0 | 0.0 | 0.00 | 0.00 | 0.00 | 1016.2 | ||
| 20260504080417 | 0 | 0.0 | 0.0 | 0.00 | 0.00 | 0.00 | 1015.9 | ||
| 20260504070344 | 0 | 0.0 | 0.0 | 0.00 | 0.00 | 0.00 | 1016.3 | ||
| 20260504050732 | 44 | 303 | 0.0 | 0.0 | 0.00 | 0.00 | 0.00 | 79 | 1016.8 |
| 20260504050229 | 44 | 298 | 0.0 | 0.0 | 0.00 | 0.00 | 0.00 | 84 | 1016.9 |
| 20260504045726 | 43 | 297 | 1.0 | 2.0 | 0.00 | 0.00 | 0.00 | 85 | 1016.8 |
| 20260504045221 | 43 | 296 | 0.0 | 0.0 | 0.00 | 0.00 | 0.00 | 87 | 1016.7 |
| 20260504044719 | 43 | 293 | 0.0 | 0.0 | 0.00 | 0.00 | 0.00 | 88 | 1016.7 |
| 20260504044216 | 42 | 296 | 0.0 | 0.0 | 0.00 | 0.00 | 0.00 | 88 | 1016.6 |
| 20260504043713 | 42 | 297 | 0.0 | 0.0 | 0.00 | 0.00 | 0.00 | 89 | 1016.9 |
| 20260504043210 | 42 | 299 | 0.0 | 0.0 | 0.00 | 0.00 | 0.00 | 89 | 1016.6 |
| 20260504042707 | 42 | 299 | 0.0 | 0.0 | 0.00 | 0.00 | 0.00 | 89 | 1016.8 |
| 20260504042203 | 41 | 299 | 0.0 | 0.0 | 0.00 | 0.00 | 0.00 | 89 | 1017.0 |
| 20260504041659 | 41 | 299 | 0.0 | 0.0 | 0.00 | 0.00 | 0.00 | 88 | 1016.7 |
| 20260504041155 | 41 | 299 | 0.0 | 0.0 | 0.00 | 0.00 | 0.00 | 87 | 1016.7 |
| 20260504040653 | 41 | 299 | 0.0 | 0.0 | 0.00 | 0.00 | 0.00 | 86 | 1016.8 |
| 20260504040150 | 41 | 299 | 0.0 | 0.0 | 0.00 | 0.00 | 0.00 | 86 | 1016.8 |
| 20260504035646 | 40 | 299 | 0.0 | 0.0 | 0.00 | 0.00 | 0.00 | 86 | 1016.7 |
| 20260504035143 | 40 | 301 | 0.0 | 0.0 | 0.00 | 0.00 | 0.00 | 85 | 1016.7 |